ミュラー第3彗星

136P/Mueller 3 (2016)

English version
Home page
Updated on February 21, 2021

---------------------------------------------------------------------

・ プロフィール

・ 写真集

・ 軌道要素

Epoch 2016 May 12.0 TT = JDT 2457520.5                                          
T 2016 May 31.16536 TT                                  Rudenko                 
q   2.9790893            (2000.0)            P               Q                  
n   0.11437329     Peri.  225.16437     +0.99249627     -0.05208756             
a   4.2032605      Node   137.45289     +0.08158554     +0.95598761             
e   0.2912432      Incl.    9.41591     -0.09107659     +0.28874655             
P   8.62                                                                        
From 436 observations 1998 May 24-2017 Dec. 25, mean residual 1".0.             
     Nongravitational parameters A1 = -1.15, A2 = -0.0098.                      

・ 光度変化

        m1 = 0 + 5 logΔ + 33 log r(t - 130)

---------------------------------------------------------------------

軌道要素はM.P.E.C. 2020-W26に掲載されたものです。
光度グラフはComet for Windowsで作成したものです。

---------------------------------------------------------------------

Copyright(C) Seiichi Yoshida (comet@aerith.net). All rights reserved.